CW3065 Weather Reports


time (UTC)temp
C
wind
direction
speed
KPH
gust
KPH
rain 1hr
cm
rain 24hr
cm
rain mn
cm
humidity
%
barometer
mb
20260508213004 15 306 8.0 11.3 0.00 0.03 0.00 29 1007.0
20260508212504 15 246 3.2 11.3 0.00 0.03 0.00 30 1007.0
20260508212004 15 247 4.8 9.7 0.00 0.03 0.00 30 1007.0
20260508211005 15 269 1.6 4.8 0.00 0.03 0.00 30 1007.0
20260508210504 15 275 9.7 19.3 0.00 0.03 0.00 31 1007.1
20260508210004 15 256 11.3 19.3 0.00 0.03 0.00 30 1007.3
20260508205503 15 238 4.8 11.3 0.00 0.03 0.00 29 1007.4
20260508205004 15 260 11.3 19.3 0.00 0.03 0.00 28 1007.4
20260508204504 15 244 3.2 9.7 0.00 0.03 0.00 29 1007.4
20260508204004 14 262 3.2 8.0 0.00 0.03 0.00 31 1007.4
20260508203504 15 230 8.0 14.5 0.00 0.03 0.00 29 1007.2
20260508203004 15 271 0.0 4.8 0.00 0.03 0.00 28 1007.2
20260508202504 15 226 3.2 8.0 0.00 0.03 0.00 31 1007.3
20260508202004 15 230 8.0 16.1 0.00 0.03 0.00 29 1007.3
20260508201504 15 271 12.9 19.3 0.00 0.03 0.00 28 1007.4
20260508200504 15 202 4.8 19.3 0.00 0.03 0.00 32 1007.5
20260508195504 15 323 6.4 16.1 0.00 0.03 0.00 31 1007.6
20260508195004 15 318 4.8 12.9 0.00 0.03 0.00 32 1008.0
20260508194504 15 257 4.8 11.3 0.00 0.03 0.00 29 1008.1
20260508194004 15 248 4.8 9.7 0.00 0.03 0.00 27 1008.1
20260508193505 15 353 8.0 16.1 0.00 0.03 0.00 30 1008.0
20260508193004 15 330 8.0 19.3 0.00 0.03 0.00 31 1008.1
20260508192504 15 253 3.2 11.3 0.00 0.03 0.00 32 1008.3
20260508191505 15 232 11.3 25.7 0.00 0.03 0.00 27 1008.2
20260508191004 15 240 4.8 9.7 0.00 0.03 0.00 29 1008.5
20260508190004 13 257 11.3 20.9 0.00 0.03 0.00 31 1008.5
20260508185504 13 323 6.4 24.1 0.00 0.03 0.00 36 1008.7
20260508185005 13 274 11.3 24.1 0.00 0.03 0.00 31 1008.6
20260508184504 13 244 1.6 20.9 0.00 0.03 0.00 32 1008.7
20260508184004 13 291 11.3 19.3 0.00 0.03 0.00 35 1008.7
20260508183004 13 220 4.8 11.3 0.00 0.03 0.00 33 1008.6
20260508182504 13 309 8.0 24.1 0.00 0.03 0.00 37 1008.7
20260508182004 12 220 3.2 9.7 0.00 0.03 0.00 35 1008.8
20260508181504 12 244 3.2 11.3 0.00 0.03 0.00 36 1008.8
20260508180504 12 242 16.1 29.0 0.00 0.03 0.00 36 1008.9
20260508180004 12 230 14.5 22.5 0.00 0.03 0.00 35 1008.8
20260508175504 12 220 6.4 8.0 0.00 0.03 0.00 37 1008.9
20260508175004 11 250 8.0 19.3 0.00 0.03 0.00 37 1009.0
20260508174504 11 254 9.7 20.9 0.00 0.03 0.00 37 1008.9
20260508174004 11 260 9.7 19.3 0.00 0.03 0.00 39 1009.0
20260508173504 11 237 9.7 16.1 0.00 0.03 0.00 40 1008.9
20260508173004 10 241 3.2 9.7 0.00 0.03 0.00 43 1008.9
20260508172504 10 350 4.8 9.7 0.00 0.03 0.00 47 1008.8
20260508172004 10 70 1.6 3.2 0.00 0.03 0.00 48 1009.0
20260508171504 10 70 3.2 4.8 0.00 0.03 0.00 48 1008.9
20260508171004 10 359 4.8 8.0 0.00 0.03 0.00 53 1009.2
20260508170504 9 61 3.2 8.0 0.00 0.03 0.00 58 1009.4
20260508170004 9 193 0.0 4.8 0.00 0.03 0.00 56 1009.5
20260508165504 8 124 4.8 8.0 0.00 0.03 0.00 57 1009.5
20260508165004 8 126 3.2 4.8 0.00 0.03 0.00 58 1009.5
20260508163504 9 57 4.8 9.7 0.00 0.03 0.00 61 1009.5
20260508163004 8 119 3.2 9.7 0.00 0.03 0.00 58 1009.5
20260508162504 9 119 1.6 4.8 0.00 0.03 0.00 60 1009.5
20260508162004 9 119 0.0 4.8 0.00 0.03 0.00 62 1009.6
20260508161504 8 119 3.2 4.8 0.00 0.03 0.00 63 1009.6
20260508161004 8 119 0.0 1.6 0.00 0.03 0.00 62 1009.5
20260508160505 8 119 1.6 4.8 0.00 0.03 0.00 60 1009.6
20260508155504 8 119 0.0 1.6 0.00 0.03 0.00 62 1009.7
20260508155004 8 119 1.6 4.8 0.00 0.03 0.00 61 1009.7
20260508154004 8 119 1.6 3.2 0.00 0.03 0.00 60 1009.6
20260508153504 8 119 1.6 3.2 0.00 0.03 0.00 64 1009.6
20260508153004 7 119 1.6 3.2 0.00 0.03 0.00 67 1009.5
20260508152504 7 119 1.6 3.2 0.00 0.03 0.00 70 1009.5
20260508151504 7 119 3.2 4.8 0.00 0.03 0.00 70 1009.5
20260508151004 7 119 1.6 3.2 0.00 0.03 0.00 69 1009.4
20260508150504 7 119 3.2 4.8 0.00 0.03 0.00 69 1009.4
20260508150005 7 119 3.2 4.8 0.00 0.03 0.00 71 1009.3
20260508145504 7 119 1.6 4.8 0.00 0.03 0.00 69 1009.2
20260508145004 7 119 3.2 4.8 0.00 0.03 0.00 70 1009.3
20260508144504 7 119 0.0 1.6 0.00 0.03 0.00 69 1009.2
20260508144004 7 119 1.6 4.8 0.00 0.03 0.00 71 1009.2
20260508143505 6 119 3.2 4.8 0.00 0.03 0.00 75 1009.3
20260508143004 6 156 1.6 3.2 0.00 0.03 0.00 74 1009.3
20260508142504 5 156 3.2 4.8 0.00 0.03 0.00 74 1009.2
20260508141504 5 158 3.2 4.8 0.00 0.03 0.00 75 1009.3
20260508141004 5 219 1.6 3.2 0.00 0.03 0.00 78 1009.3
20260508140004 4 219 1.6 4.8 0.00 0.03 0.00 82 1009.5
20260508135505 4 219 1.6 4.8 0.00 0.03 0.00 83 1009.4
20260508135004 3 219 1.6 4.8 0.00 0.03 0.00 84 1009.4
20260508134504 3 219 8.0 8.0 0.00 0.03 0.00 84 1009.3
20260508134004 3 219 1.6 4.8 0.00 0.03 0.00 85 1009.4
20260508133504 3 219 0.0 0.0 0.00 0.03 0.00 86 1009.5
20260508133004 3 219 0.0 0.0 0.00 0.03 0.00 87 1009.5
20260508132504 3 219 0.0 0.0 0.00 0.03 0.00 89 1010.0
20260508131504 2 219 1.6 3.2 0.00 0.03 0.00 90 1009.8
20260508130504 1 290 0.0 0.0 0.00 0.03 0.00 91 1009.6
20260508130004 1 290 0.0 0.0 0.00 0.03 0.00 91 1009.6
20260508125504 1 290 1.6 4.8 0.00 0.03 0.00 91 1009.6
20260508125004 1 290 4.8 8.0 0.00 0.03 0.00 91 1009.6
20260508124504 1 290 4.8 8.0 0.00 0.03 0.00 91 1009.4
20260508124004 1 290 3.2 8.0 0.00 0.03 0.00 91 1009.3
20260508123504 1 290 4.8 8.0 0.00 0.03 0.00 90 1009.0
20260508123004 2 290 4.8 9.7 0.00 0.03 0.00 91 1009.0
20260508122504 2 293 6.4 11.3 0.00 0.03 0.00 90 1009.1
20260508121504 2 187 9.7 11.3 0.00 0.03 0.00 92 1009.1
20260508121004 2 150 9.7 14.5 0.00 0.03 0.00 94 1009.4
20260508115504 1 116 4.8 8.0 0.00 0.03 0.00 94 1009.5
20260508114504 1 21 9.7 22.5 0.00 0.03 0.00 95 1009.6
20260508114004 1 16 16.1 22.5 0.00 0.03 0.00 95 1009.7
20260508113504 1 27 16.1 19.3 0.00 0.03 0.00 95 1009.7
20260508113005 0 34 19.3 27.4 0.00 0.03 0.00 95 1009.8
20260508112504 0 29 12.9 19.3 0.00 0.03 0.00 95 1009.7
20260508112005 0 31 9.7 14.5 0.00 0.03 0.00 94 1009.1
20260508111004 0 346 1.6 3.2 0.00 0.03 0.00 94 1009.0
20260508110504 0 346 0.0 0.0 0.00 0.03 0.00 94 1008.8
20260508110005 0 346 0.0 0.0 0.00 0.03 0.00 94 1008.8
20260508105504 0 346 0.0 0.0 0.00 0.03 0.00 93 1008.7
20260508105004 0 346 0.0 0.0 0.00 0.03 0.00 93 1008.3
20260508104005 0 346 0.0 4.8 0.00 0.03 0.00 94 1008.3
20260508103504 0 346 3.2 4.8 0.00 0.03 0.00 94 1008.5
20260508103004 0 346 3.2 4.8 0.00 0.03 0.00 94 1008.5
20260508102504 0 203 4.8 4.8 0.00 0.03 0.00 94 1008.5
20260508101504 0 86 1.6 9.7 0.00 0.03 0.00 93 1008.5
20260508100004 0 233 6.4 9.7 0.00 0.03 0.00 94 1008.1
20260508095504 0 223 4.8 8.0 0.00 0.03 0.00 94 1007.9
20260508095004 0 310 3.2 4.8 0.00 0.03 0.00 94 1008.2
20260508094504 0 324 3.2 4.8 0.00 0.03 0.00 93 1008.0
20260508094004 0 286 1.6 4.8 0.00 0.03 0.00 93 1008.3
20260508093504 0 356 3.2 4.8 0.00 0.03 0.00 93 1008.1
20260508092504 0 352 4.8 11.3 0.00 0.03 0.00 92 1008.0
20260508092004 0 351 1.6 4.8 0.00 0.03 0.00 93 1007.8
20260508091504 0 299 0.0 0.0 0.00 0.03 0.00 93 1007.8
20260508091004 0 299 0.0 4.8 0.00 0.03 0.00 92 1007.9
20260508090504 0 299 0.0 4.8 0.00 0.03 0.00 92 1007.9
20260508090004 0 323 0.0 0.0 0.00 0.03 0.00 92 1007.9
20260508085504 0 323 0.0 0.0 0.00 0.03 0.00 92 1008.0
20260508085004 0 323 0.0 0.0 0.00 0.03 0.00 92 1008.0
20260508084504 0 323 0.0 0.0 0.00 0.03 0.00 93 1007.9
20260508084004 0 323 0.0 3.2 0.00 0.03 0.00 93 1007.9
20260508083504 0 323 1.6 12.9 0.00 0.03 0.00 92 1008.2
20260508083004 0 313 1.6 9.7 0.00 0.03 0.00 92 1008.2
20260508082004 1 346 0.0 3.2 0.00 0.03 0.00 91 1008.0
20260508080504 1 24 8.0 8.0 0.00 0.03 0.00 91 1008.3
20260508080004 1 259 1.6 3.2 0.00 0.03 0.00 92 1008.4
20260508075504 1 259 3.2 4.8 0.00 0.03 0.00 91 1008.3
20260508075004 1 259 1.6 3.2 0.00 0.03 0.00 92 1008.6
20260508074504 1 259 1.6 8.0 0.00 0.03 0.00 92 1008.5
20260508074004 1 259 4.8 9.7 0.00 0.03 0.00 91 1008.8
20260508073504 1 260 0.0 4.8 0.00 0.03 0.00 91 1008.5
20260508073004 1 260 4.8 4.8 0.00 0.03 0.00 91 1008.7
20260508072504 1 260 1.6 4.8 0.00 0.03 0.00 91 1008.7
20260508072004 1 260 3.2 4.8 0.00 0.03 0.00 91 1008.9
20260508071504 1 32 4.8 8.0 0.00 0.03 0.00 90 1008.8
20260508071003 1 260 1.6 4.8 0.00 0.03 0.00 91 1008.8
20260508065504 1 356 3.2 4.8 0.00 0.03 0.00 90 1008.8
20260508065004 1 340 0.0 0.0 0.00 0.03 0.00 90 1008.9
20260508064504 1 340 1.6 4.8 0.00 0.03 0.00 89 1008.7
20260508064004 1 340 4.8 4.8 0.00 0.03 0.00 89 1008.7
20260508063504 2 340 3.2 4.8 0.00 0.03 0.00 89 1008.7
20260508062504 2 210 3.2 4.8 0.00 0.03 0.00 88 1008.7
20260508062005 2 210 1.6 4.8 0.00 0.03 0.00 87 1008.6
20260508061504 2 210 3.2 8.0 0.00 0.03 0.00 88 1008.5
20260508061004 2 210 0.0 4.8 0.00 0.03 0.00 87 1008.4
20260508060504 2 210 4.8 4.8 0.00 0.03 0.00 86 1008.5
20260508060005 3 358 4.8 4.8 0.00 0.03 0.00 85 1008.4
20260508055504 3 342 3.2 4.8 0.00 0.03 0.03 85 1008.4
20260508055004 3 342 4.8 4.8 0.00 0.03 0.03 85 1008.4
20260508054504 3 342 4.8 11.3 0.00 0.03 0.03 84 1008.5
20260508054004 3 350 6.4 9.7 0.00 0.03 0.03 84 1008.4
20260508053504 3 252 8.0 11.3 0.00 0.03 0.03 84 1008.5
20260508053004 3 252 6.4 9.7 0.00 0.03 0.03 84 1008.6
20260508052004 3 267 4.8 8.0 0.03 0.03 0.03 84 1008.8
20260508051504 4 232 4.8 4.8 0.03 0.03 0.03 84 1009.0
20260508051004 4 232 4.8 8.0 0.03 0.03 0.03 84 1009.0
20260508050505 4 223 4.8 11.3 0.03 0.03 0.03 83 1009.0
20260508050004 4 325 3.2 4.8 0.03 0.03 0.03 83 1009.0
20260508045504 4 325 3.2 8.0 0.03 0.03 0.03 82 1009.0
20260508045004 4 309 3.2 8.0 0.03 0.03 0.03 82 1009.1
20260508044504 4 298 4.8 11.3 0.03 0.03 0.03 83 1009.6
20260508044004 3 243 8.0 11.3 0.03 0.03 0.03 84 1009.3
20260508043004 4 273 8.0 16.1 0.03 0.03 0.03 83 1008.9
20260508041504 4 240 4.8 8.0 0.00 0.00 0.00 81 1008.5
20260508041004 4 188 6.4 14.5 0.00 0.00 0.00 80 1008.3
20260508040504 4 157 8.0 9.7 0.00 0.00 0.00 79 1008.2
20260508040005 5 277 4.8 9.7 0.00 0.00 0.00 78 1008.0
20260508035504 5 314 3.2 4.8 0.00 0.00 0.00 78 1008.0
20260508035004 5 317 4.8 8.0 0.00 0.00 0.00 77 1008.0
20260508034504 5 317 6.4 8.0 0.00 0.00 0.00 77 1008.2
20260508033504 6 317 6.4 9.7 0.00 0.00 0.00 76 1008.2
20260508033005 6 317 4.8 8.0 0.00 0.00 0.00 75 1008.2
20260508032004 6 267 6.4 20.9 0.00 0.00 0.00 73 1008.6
20260508031505 6 242 9.7 20.9 0.00 0.00 0.00 74 1008.8
20260508031004 6 256 11.3 24.1 0.00 0.00 0.00 74 1008.9
20260508030504 6 295 20.9 48.3 0.00 0.00 0.00 70 1008.9
20260508030004 6 303 8.0 16.1 0.00 0.00 0.00 64 1008.2
20260508025504 6 325 9.7 11.3 0.00 0.00 0.00 63 1007.8
20260508024504 7 26 6.4 8.0 0.00 0.00 0.00 60 1007.6
20260508024004 7 34 3.2 4.8 0.00 0.00 0.00 60 1007.4
20260508023504 8 275 4.8 4.8 0.00 0.00 0.00 58 1007.1
20260508022004 8 275 3.2 8.0 0.00 0.00 0.00 56 1007.1
20260508021004 8 275 4.8 4.8 0.00 0.00 0.00 56 1007.1
20260508020504 8 275 3.2 9.7 0.00 0.00 0.00 56 1007.0
20260508020004 8 257 6.4 9.7 0.00 0.00 0.00 55 1007.1
20260508015504 8 255 3.2 8.0 0.00 0.00 0.00 55 1007.2
20260508015004 8 255 4.8 8.0 0.00 0.00 0.00 54 1007.5
20260508014504 9 255 4.8 4.8 0.00 0.00 0.00 54 1007.4
20260508014004 9 255 1.6 4.8 0.00 0.00 0.00 54 1007.3
20260508013504 9 255 1.6 3.2 0.00 0.00 0.00 53 1007.4
20260508013004 10 255 4.8 8.0 0.00 0.00 0.00 52 1007.2
20260508012504 10 255 4.8 11.3 0.00 0.00 0.00 50 1007.2
20260508012004 10 306 3.2 4.8 0.00 0.00 0.00 52 1007.0
20260508011503 10 352 1.6 4.8 0.00 0.00 0.00 52 1007.1
20260508010504 10 352 3.2 4.8 0.00 0.00 0.00 52 1007.1
20260508010004 10 352 4.8 8.0 0.00 0.00 0.00 53 1007.0
20260508005504 10 236 1.6 4.8 0.00 0.00 0.00 53 1006.8
20260508005004 10 225 8.0 16.1 0.00 0.00 0.00 52 1006.8
20260508004004 11 274 4.8 9.7 0.00 0.00 0.00 51 1006.9
20260508003504 11 299 3.2 8.0 0.00 0.03 0.00 53 1007.2
20260508002504 10 340 6.4 12.9 0.00 0.03 0.00 54 1007.5
20260508002004 10 314 8.0 12.9 0.00 0.03 0.00 53 1007.6
20260508001504 10 325 9.7 16.1 0.00 0.03 0.00 54 1007.5
20260508001004 10 306 9.7 22.5 0.00 0.03 0.00 54 1007.8
20260508000503 10 283 12.9 22.5 0.00 0.03 0.00 53 1008.1
20260508000004 10 308 14.5 27.4 0.00 0.03 0.00 52 1008.3
20260507235504 10 307 9.7 24.1 0.00 0.03 0.00 49 1007.9
20260507235004 10 313 9.7 19.3 0.00 0.03 0.00 49 1007.9
20260507234504 11 355 14.5 24.1 0.00 0.05 0.00 48 1007.7
20260507234004 11 345 14.5 24.1 0.00 0.05 0.00 47 1007.5
20260507233504 11 282 19.3 25.7 0.00 0.05 0.00 41 1007.5
20260507233004 11 290 11.3 27.4 0.00 0.05 0.00 40 1007.6
20260507232504 11 258 3.2 9.7 0.00 0.05 0.00 39 1007.7
20260507231504 11 269 8.0 22.5 0.00 0.08 0.00 37 1007.5
20260507230004 12 271 11.3 19.3 0.00 0.10 0.00 36 1007.5
20260507225504 12 289 9.7 25.7 0.00 0.10 0.00 36 1007.6
20260507224504 12 225 6.4 11.3 0.00 0.13 0.00 35 1007.6
20260507223505 11 268 14.5 32.2 0.00 0.15 0.00 37 1007.7
20260507222503 12 244 12.9 20.9 0.00 0.20 0.00 37 1007.6
20260507222004 12 264 4.8 20.9 0.00 0.23 0.00 37 1007.7
20260507221504 12 254 6.4 25.7 0.00 0.25 0.00 37 1007.7
20260507221004 11 247 11.3 20.9 0.00 0.28 0.00 37 1007.8
20260507220504 11 263 14.5 37.0 0.00 0.30 0.00 36 1007.8
20260507220004 11 253 9.7 20.9 0.00 0.36 0.00 36 1008.0
20260507215004 11 295 14.5 38.6 0.00 0.43 0.00 39 1008.6
20260507214503 11 252 16.1 32.2 0.00 0.46 0.00 37 1008.9
20260507214004 11 210 16.1 32.2 0.00 0.51 0.00 36 1008.7